CW5053 Weather Reports


Display with metric or nautical units.
time (UTC)temp
F
wind
direction
speed
MPH
gust
MPH
rain 1hr
in
rain 24hr
in
rain mn
in
humidity
%
barometer
mb
20260503215216 86 271 3.0 11.0 0.00 0.00 0.00 36 1010.7
20260503215044 86 256 1.0 11.0 0.00 0.00 0.00 37 1010.0
20260503214717 86 252 3.0 11.0 0.00 0.00 0.00 38 1010.8
20260503214526 86 14 5.0 11.0 0.00 0.00 0.00 36 1010.1
20260503214226 86 288 0.0 9.0 0.00 0.00 0.00 38 1010.8
20260503214007 86 271 0.0 9.0 0.00 0.00 0.00 36 1010.1
20260503213727 86 13 4.0 11.0 0.00 0.00 0.00 36 1010.9
20260503213551 86 226 1.0 11.0 0.00 0.00 0.00 38 1010.3
20260503213229 86 277 2.0 11.0 0.00 0.00 0.00 38 1011.0
20260503213033 85 248 4.0 11.0 0.00 0.00 0.00 39 1010.3
20260503212738 86 15 2.0 11.0 0.00 0.00 0.00 38 1011.0
20260503212556 85 15 2.0 11.0 0.00 0.00 0.00 41 1010.3
20260503212219 86 13 3.0 11.0 0.00 0.00 0.00 37 1011.0
20260503212038 85 15 2.0 13.0 0.00 0.00 0.00 40 1010.3
20260503211720 85 14 3.0 13.0 0.00 0.00 0.00 41 1011.1
20260503211518 85 13 4.0 13.0 0.00 0.00 0.00 43 1010.3
20260503211229 85 13 6.0 13.0 0.00 0.00 0.00 42 1011.1
20260503211102 85 13 4.0 10.0 0.00 0.00 0.00 44 1010.5
20260503210757 85 14 2.0 10.0 0.00 0.00 0.00 42 1011.2
20260503210524 84 13 2.0 10.0 0.00 0.00 0.00 43 1010.4
20260503210218 85 13 6.0 11.0 0.00 0.00 0.00 45 1011.2
20260503210003 84 13 4.0 11.0 0.00 0.00 0.00 46 1010.5
20260503205718 84 13 5.0 11.0 0.00 0.00 0.00 45 1011.3
20260503205546 84 14 6.0 11.0 0.00 0.00 0.00 43 1010.5
20260503205247 84 13 5.0 10.0 0.00 0.00 0.00 43 1011.3
20260503205007 84 13 6.0 10.0 0.00 0.00 0.00 46 1010.6
20260503204727 84 13 4.0 10.0 0.00 0.00 0.00 44 1011.2
20260503204551 84 13 6.0 10.0 0.00 0.00 0.00 43 1010.6
20260503204228 84 14 4.0 9.0 0.00 0.00 0.00 46 1011.3
20260503204034 84 13 3.0 9.0 0.00 0.00 0.00 47 1010.7
20260503203710 84 13 5.0 9.0 0.00 0.00 0.00 51 1011.4
20260503203516 83 13 3.0 9.0 0.00 0.00 0.00 48 1010.8
20260503203239 84 14 4.0 8.0 0.00 0.00 0.00 48 1011.6
20260503203037 83 310 1.0 8.0 0.00 0.00 0.00 49 1010.9
20260503202747 84 15 2.0 5.0 0.00 0.00 0.00 47 1011.7
20260503202600 83 15 2.0 5.0 0.00 0.00 0.00 52 1011.0
20260503202228 83 14 2.0 6.0 0.00 0.00 0.00 50 1011.7
20260503202041 83 15 2.0 10.0 0.00 0.00 0.00 48 1011.0
20260503201736 83 14 3.0 10.0 0.00 0.00 0.00 51 1011.7
20260503201522 82 15 4.0 10.0 0.00 0.00 0.00 53 1011.0
20260503201217 83 14 4.0 10.0 0.00 0.00 0.00 51 1011.7
20260503201004 82 13 4.0 8.0 0.00 0.00 0.00 53 1011.0
20260503200718 83 14 4.0 9.0 0.00 0.00 0.00 51 1011.7
20260503200546 82 13 2.0 9.0 0.00 0.00 0.00 55 1011.1
20260503200248 82 13 2.0 9.0 0.00 0.00 0.00 55 1011.8
20260503200010 82 13 4.0 9.0 0.00 0.00 0.00 54 1011.2
20260503195745 82 15 4.0 9.0 0.00 0.00 0.00 56 1012.1
20260503195531 82 14 2.0 8.0 0.00 0.00 0.00 53 1011.3
20260503195210 82 15 1.0 8.0 0.00 0.00 0.00 55 1012.1
20260503195013 82 14 5.0 8.0 0.00 0.00 0.00 54 1011.5
20260503194719 82 13 3.0 8.0 0.00 0.00 0.00 60 1012.2
20260503194557 82 13 0.0 6.0 0.00 0.00 0.00 58 1011.5
20260503194236 82 14 1.0 6.0 0.00 0.00 0.00 57 1012.1
20260503194017 81 14 1.0 6.0 0.00 0.00 0.00 54 1011.4
20260503193723 82 15 0.0 6.0 0.00 0.00 0.00 59 1012.2
20260503193600 81 15 0.0 6.0 0.00 0.00 0.00 58 1011.4
20260503193224 81 15 2.0 6.0 0.00 0.00 0.00 64 1012.2
20260503193045 80 13 3.0 8.0 0.00 0.00 0.00 60 1011.6
20260503192725 81 13 1.0 9.0 0.00 0.00 0.00 56 1012.2
20260503192523 80 15 2.0 9.0 0.00 0.00 0.00 61 1011.6
20260503192218 80 13 6.0 9.0 0.00 0.00 0.00 60 1012.2
20260503192005 80 13 3.0 8.0 0.00 0.00 0.00 60 1011.7
20260503191719 80 13 4.0 9.0 0.00 0.00 0.00 61 1012.3
20260503191549 79 13 2.0 9.0 0.00 0.00 0.00 59 1011.6
20260503191220 80 14 4.0 9.0 0.00 0.00 0.00 62 1012.4
20260503191031 79 13 5.0 9.0 0.00 0.00 0.00 62 1011.7
20260503190729 80 13 5.0 10.0 0.00 0.00 0.00 60 1012.4
20260503190510 79 13 4.0 10.0 0.00 0.00 0.00 60 1011.8
20260503190210 80 13 5.0 10.0 0.00 0.00 0.00 61 1012.4
20260503190054 79 13 5.0 10.0 0.00 0.00 0.00 62 1011.8
20260503185711 80 13 4.0 7.0 0.00 0.00 0.00 61 1012.5
20260503185534 79 13 3.0 5.0 0.00 0.00 0.00 61 1011.9
20260503185240 79 270 0.0 4.0 0.00 0.00 0.00 61 1012.6
20260503185059 79 278 0.0 0.0 0.00 0.00 0.00 60 1011.9
20260503184720 79 265 0.0 0.0 0.00 0.00 0.00 64 1012.7
20260503184539 78 273 0.0 0.0 0.00 0.00 0.00 65 1012.0
20260503184222 79 15 0.0 2.0 0.00 0.00 0.00 62 1012.6
20260503184024 78 14 0.0 3.0 0.00 0.00 0.00 61 1012.1
20260503183730 78 15 0.0 4.0 0.00 0.00 0.00 63 1012.7
20260503183501 77 313 0.0 6.0 0.00 0.00 0.00 62 1012.1
20260503183211 77 14 1.0 6.0 0.00 0.00 0.00 65 1012.7
20260503183105 76 13 2.0 6.0 0.00 0.00 0.00 64 1012.2
20260503182741 77 13 1.0 7.0 0.00 0.00 0.00 65 1012.8
20260503182507 76 13 3.0 6.0 0.00 0.00 0.00 62 1012.2
20260503182221 77 13 0.0 0.0 0.00 0.00 0.00 64 1012.8
20260503182049 76 13 0.0 0.0 0.00 0.00 0.00 64 1012.3
20260503181746 76 13 0.0 4.0 0.00 0.00 0.00 65 1012.9
20260503181510 76 13 0.0 5.0 0.00 0.00 0.00 66 1012.4
20260503181226 76 13 0.0 5.0 0.00 0.00 0.00 65 1013.0
20260503181052 75 15 0.0 6.0 0.00 0.00 0.00 66 1012.3
20260503180710 75 14 3.0 6.0 0.00 0.00 0.00 68 1013.0
20260503180534 74 14 2.0 6.0 0.00 0.00 0.00 65 1012.4
20260503180236 75 13 3.0 7.0 0.00 0.00 0.00 65 1013.0
20260503175716 75 14 0.0 4.0 0.00 0.00 0.00 67 1013.1
20260503175538 74 225 0.0 8.0 0.00 0.00 0.00 66 1012.4
20260503175224 74 14 2.0 8.0 0.00 0.00 0.00 69 1013.0
20260503175101 74 299 1.0 8.0 0.00 0.00 0.00 68 1012.6
20260503174725 74 13 3.0 8.0 0.00 0.00 0.00 68 1013.2
20260503174543 73 13 0.0 0.0 0.00 0.00 0.00 69 1012.6
20260503174227 73 14 0.0 0.0 0.00 0.00 0.00 68 1013.1
20260503174024 73 13 0.0 0.0 0.00 0.00 0.00 68 1012.7
20260503173735 73 13 0.0 0.0 0.00 0.00 0.00 71 1013.2
20260503173546 72 12 0.0 0.0 0.00 0.00 0.00 69 1012.6
20260503173216 73 13 0.0 0.0 0.00 0.00 0.00 71 1013.2
20260503173028 72 13 0.0 0.0 0.00 0.00 0.00 70 1012.7
20260503172724 72 14 0.0 4.0 0.00 0.00 0.00 70 1013.3
20260503172510 71 13 0.0 5.0 0.00 0.00 0.00 70 1012.9
20260503172247 72 13 0.0 5.0 0.00 0.00 0.00 73 1013.4
20260503172036 71 13 0.0 5.0 0.00 0.00 0.00 75 1012.8
20260503171735 71 13 1.0 5.0 0.00 0.00 0.00 73 1013.3
20260503171521 70 13 0.0 0.0 0.00 0.00 0.00 73 1012.8
20260503171215 71 13 0.0 0.0 0.00 0.00 0.00 73 1013.4
20260503171037 70 13 0.0 0.0 0.00 0.00 0.00 74 1012.9
20260503170716 70 13 0.0 0.0 0.00 0.00 0.00 75 1013.4
20260503170518 69 14 0.0 0.0 0.00 0.00 0.00 76 1012.9
20260503170224 70 13 0.0 0.0 0.00 0.00 0.00 75 1013.4
20260503150736 60 12 2.0 3.0 0.00 0.00 0.00 87 1013.5
20260503150602 59 11 1.0 3.0 0.00 0.00 0.00 88 1013.1
20260503150217 59 12 1.0 3.0 0.00 0.00 0.00 88 1013.5
20260503140228 57 78 0.0 1.0 0.00 0.00 0.00 91 1013.2
20260503131213 57 137 3.0 8.0 0.00 0.00 0.00 87 1013.2
20260503131054 56 138 3.0 8.0 0.00 0.00 0.00 87 1012.8
20260503130734 57 140 3.0 6.0 0.00 0.00 0.00 86 1013.2
20260503130518 57 142 2.0 7.0 0.00 0.00 0.00 85 1012.8
20260503130218 58 132 2.0 7.0 0.00 0.00 0.00 84 1013.1
20260503120220 55 63 1.0 4.0 0.00 0.00 0.00 95 1013.2
20260503110749 55 44 1.0 3.0 0.00 0.00 0.00 93 1013.8
20260503110539 55 44 0.0 3.0 0.00 0.00 0.00 93 1013.4
20260503110209 55 44 1.0 3.0 0.00 0.00 0.00 93 1013.9
20260503100214 56 23 2.0 3.0 0.00 0.00 0.00 91 1013.8
20260503090508 57 22 1.0 2.0 0.00 0.00 0.00 91 1013.3
20260503090224 57 22 1.0 3.0 0.00 0.00 0.00 90 1013.7
20260503081507 58 60 2.0 4.0 0.00 0.00 0.00 89 1013.5
20260503081218 58 68 2.0 4.0 0.00 0.00 0.00 89 1014.1
20260503081053 58 68 1.0 4.0 0.00 0.00 0.00 89 1013.6
20260503080720 58 73 3.0 4.0 0.00 0.00 0.00 88 1014.0
20260503080532 58 73 2.0 4.0 0.00 0.00 0.00 88 1013.7
20260503080228 59 64 2.0 3.0 0.00 0.00 0.00 88 1014.0
20260503072710 61 175 2.0 3.0 0.00 0.00 0.00 84 1013.9
20260503072507 61 175 2.0 3.0 0.00 0.00 0.00 84 1013.4
20260503072218 62 40 0.0 3.0 0.00 0.00 0.00 83 1013.7
20260503072051 61 40 0.0 4.0 0.00 0.00 0.00 83 1013.4
20260503071719 62 40 2.0 4.0 0.00 0.00 0.00 83 1013.7
20260503071536 61 39 2.0 4.0 0.00 0.00 0.00 83 1013.4
20260503071228 62 59 2.0 6.0 0.00 0.00 0.00 82 1013.8
20260503071014 62 148 0.0 6.0 0.00 0.00 0.00 82 1013.5
20260503070726 63 148 1.0 6.0 0.00 0.00 0.00 81 1013.8
20260503070554 62 165 2.0 6.0 0.00 0.00 0.00 81 1013.5
20260503070228 63 147 2.0 6.0 0.00 0.00 0.00 81 1013.8
20260503060216 62 360 2.0 6.0 0.00 0.00 0.00 85 1014.2
20260503055000 60 15 2.0 4.0 0.00 0.00 0.00 85 1014.1
20260503054727 61 15 3.0 4.0 0.00 0.00 0.00 85 1014.4
20260503054544 60 54 2.0 4.0 0.00 0.00 0.00 85 1014.1
20260503054229 61 63 3.0 4.0 0.00 0.00 0.00 84 1014.5
20260503054025 61 49 3.0 4.0 0.00 0.00 0.00 84 1014.2
20260503053738 62 53 3.0 4.0 0.00 0.00 0.00 83 1014.6
20260503053549 62 66 1.0 4.0 0.00 0.00 0.00 83 1014.3
20260503053246 62 125 2.0 6.0 0.00 0.00 0.00 82 1014.5
20260503053011 62 134 1.0 6.0 0.00 0.00 0.00 82 1014.3
20260503052726 62 323 2.0 6.0 0.00 0.00 0.00 82 1014.4
20260503052553 62 294 2.0 6.0 0.00 0.00 0.00 83 1014.0
20260503052227 62 293 2.0 6.0 0.00 0.00 0.00 84 1014.3
20260503052035 61 54 1.0 5.0 0.00 0.00 0.00 84 1014.1
20260503051735 61 350 2.0 5.0 0.00 0.00 0.00 85 1014.3
20260503051523 61 5 2.0 5.0 0.00 0.00 0.00 85 1014.0
20260503051238 61 327 2.0 2.0 0.00 0.00 0.00 84 1014.3
20260503051039 61 327 1.0 2.0 0.00 0.00 0.00 84 1014.1
20260503050719 61 325 1.0 2.0 0.00 0.00 0.00 84 1014.5
20260503050522 61 325 1.0 2.0 0.00 0.00 0.00 84 1014.3
20260503050228 61 5 0.0 2.0 0.00 0.00 0.00 84 1014.5
20260503050002 61 5 0.0 2.0 0.00 0.00 0.00 84 1014.3
20260503045708 61 5 1.0 2.0 0.00 0.00 0.00 83 1014.6
20260503045546 61 5 1.0 2.0 0.00 0.00 0.00 83 1014.3
20260503045238 62 5 1.0 2.0 0.00 0.00 0.00 83 1014.6
20260503045009 61 338 0.0 2.0 0.00 0.00 0.00 83 1014.3
20260503044718 62 338 1.0 2.0 0.00 0.00 0.00 82 1014.5
20260503044548 61 295 1.0 2.0 0.00 0.00 0.00 83 1014.3
20260503044221 62 261 1.0 2.0 0.00 0.00 0.00 82 1014.6
20260503044013 62 255 1.0 2.0 0.00 0.00 0.00 82 1014.4
20260503043722 62 246 1.0 2.0 0.00 0.00 0.00 82 1014.6
20260503043553 62 244 1.0 2.0 0.00 0.00 0.00 82 1014.4
20260503043223 63 244 1.0 2.0 0.00 0.00 0.00 81 1014.6
20260503043033 62 244 1.0 2.0 0.00 0.00 0.00 81 1014.3
20260503042732 63 190 1.0 2.0 0.00 0.00 0.00 80 1014.6
20260503042515 63 177 0.0 2.0 0.00 0.00 0.00 80 1014.3
20260503042234 63 177 1.0 2.0 0.00 0.00 0.00 79 1014.6
20260503042143 63 177 1.0 2.0 0.00 0.00 0.00 79 1014.3
20260503041732 64 177 0.0 2.0 0.00 0.00 0.00 78 1014.4
20260503041509 64 177 0.0 2.0 0.00 0.00 0.00 78 1014.2
20260503041221 64 177 0.0 2.0 0.00 0.00 0.00 78 1014.4
20260503040537 64 176 0.0 2.0 0.00 0.00 0.00 76 1014.1
20260503040244 65 177 0.0 3.0 0.00 0.00 0.00 76 1014.4
20260503040100 65 177 0.0 4.0 0.00 0.00 0.00 76 1014.2
20260503035745 65 177 1.0 4.0 0.00 0.00 0.00 76 1014.4
20260503035525 65 177 1.0 4.0 0.00 0.00 0.00 75 1014.1
20260503035232 66 175 1.0 5.0 0.00 0.00 0.00 75 1014.3
20260503035003 65 159 1.0 5.0 0.00 0.00 0.00 74 1014.0
20260503034713 66 190 1.0 4.0 0.00 0.00 0.00 74 1014.2
20260503034556 66 176 2.0 4.0 0.00 0.00 0.00 74 1014.0
20260503034215 66 158 2.0 6.0 0.00 0.00 0.00 74 1014.1
20260503034028 66 180 2.0 7.0 0.00 0.00 0.00 73 1013.8
20260503033723 67 190 3.0 7.0 0.00 0.00 0.00 73 1014.1
20260503033509 66 128 4.0 7.0 0.00 0.00 0.00 73 1013.7
20260503033225 67 159 4.0 8.0 0.00 0.00 0.00 73 1014.0
20260503033058 67 169 2.0 8.0 0.00 0.00 0.00 73 1013.6
20260503032726 67 195 4.0 9.0 0.00 0.00 0.00 72 1013.9
20260503032538 67 171 4.0 9.0 0.00 0.00 0.00 72 1013.6
20260503032235 68 188 3.0 9.0 0.00 0.00 0.00 72 1013.8
20260503032016 67 162 4.0 9.0 0.00 0.00 0.00 72 1013.4
20260503031716 68 178 3.0 9.0 0.00 0.00 0.00 72 1013.7
20260503031600 68 163 3.0 9.0 0.00 0.00 0.00 71 1013.4
20260503031218 68 137 5.0 9.0 0.00 0.00 0.00 71 1013.6
20260503031040 68 175 2.0 9.0 0.00 0.00 0.00 71 1013.2
20260503030719 69 190 4.0 9.0 0.00 0.00 0.00 70 1013.5
20260503030523 68 162 4.0 10.0 0.00 0.00 0.00 70 1013.3
20260503030227 69 164 5.0 10.0 0.00 0.00 0.00 70 1013.5
20260503030005 69 167 6.0 10.0 0.00 0.00 0.00 69 1013.2
20260503025713 70 159 5.0 16.0 0.00 0.00 0.00 69 1013.4
20260503025546 70 187 4.0 16.0 0.00 0.00 0.00 69 1013.1
20260503025214 71 197 4.0 16.0 0.00 0.00 0.00 69 1013.3
20260503025029 71 154 5.0 16.0 0.00 0.00 0.00 68 1013.0
20260503024722 72 159 4.0 8.0 0.00 0.00 0.00 67 1013.1
20260503024509 71 174 3.0 5.0 0.00 0.00 0.00 68 1012.8
20260503024224 72 179 2.0 4.0 0.00 0.00 0.00 67 1013.0
20260503024053 72 177 2.0 4.0 0.00 0.00 0.00 66 1012.7
20260503023748 73 13 3.0 5.0 0.00 0.00 0.00 66 1012.9
20260503023512 72 12 1.0 5.0 0.00 0.00 0.00 67 1012.5
20260503023249 73 12 2.0 5.0 0.00 0.00 0.00 67 1012.8
20260503023036 73 12 1.0 5.0 0.00 0.00 0.00 66 1012.4
20260503022736 73 12 3.0 5.0 0.00 0.00 0.00 65 1012.6
20260503022517 73 12 1.0 3.0 0.00 0.00 0.00 65 1012.2
20260503022217 74 12 2.0 3.0 0.00 0.00 0.00 64 1012.6
20260503022100 73 11 1.0 3.0 0.00 0.00 0.00 65 1012.3
20260503021719 74 12 2.0 3.0 0.00 0.00 0.00 65 1012.6
20260503021541 73 12 0.0 3.0 0.00 0.00 0.00 65 1012.3
20260503021220 74 12 1.0 3.0 0.00 0.00 0.00 65 1012.6
20260503021026 74 12 1.0 3.0 0.00 0.00 0.00 63 1012.4
20260503020728 74 12 0.0 0.0 0.00 0.00 0.00 63 1012.7
20260503020504 74 12 0.0 0.0 0.00 0.00 0.00 63 1012.4
20260503020214 74 11 0.0 0.0 0.00 0.00 0.00 64 1012.6
20260503020048 74 11 0.0 0.0 0.00 0.00 0.00 62 1012.3
20260503015715 74 11 0.0 0.0 0.00 0.00 0.00 63 1012.6
20260503015529 74 11 0.0 0.0 0.00 0.00 0.00 62 1012.3
20260503015224 74 11 0.0 2.0 0.00 0.00 0.00 63 1012.5
20260503015011 74 11 0.0 3.0 0.00 0.00 0.00 63 1012.2
20260503014725 74 11 0.0 3.0 0.00 0.00 0.00 63 1012.4
20260503014554 74 11 0.0 3.0 0.00 0.00 0.00 66 1012.2
20260503014227 74 12 1.0 3.0 0.00 0.00 0.00 66 1012.6
20260503014035 73 11 1.0 3.0 0.00 0.00 0.00 64 1012.3
20260503013735 74 13 1.0 3.0 0.00 0.00 0.00 65 1012.6
20260503013558 73 13 1.0 4.0 0.00 0.00 0.00 65 1012.3
20260503013216 74 12 1.0 4.0 0.00 0.00 0.00 64 1012.6
20260503013049 74 11 1.0 4.0 0.00 0.00 0.00 64 1012.3
20260503012717 74 12 3.0 4.0 0.00 0.00 0.00 64 1012.6
20260503012521 74 12 1.0 4.0 0.00 0.00 0.00 66 1012.4
20260503012242 74 11 1.0 4.0 0.00 0.00 0.00 64 1012.7
20260503012043 74 11 0.0 4.0 0.00 0.00 0.00 67 1012.4
20260503011722 74 12 1.0 4.0 0.00 0.00 0.00 63 1012.7
20260503011532 74 13 1.0 4.0 0.00 0.00 0.00 64 1012.5
20260503011230 74 12 0.0 2.0 0.00 0.00 0.00 62 1012.7
20260503011007 74 12 0.0 3.0 0.00 0.00 0.00 64 1012.4
20260503010716 74 13 0.0 3.0 0.00 0.00 0.00 64 1012.7
20260503010550 73 13 0.0 3.0 0.00 0.00 0.00 63 1012.4
20260503010233 74 13 1.0 4.0 0.00 0.00 0.00 64 1012.7
20260503010012 73 13 1.0 4.0 0.00 0.00 0.00 64 1012.4
20260503005721 74 13 3.0 4.0 0.00 0.00 0.00 63 1012.7
20260503005554 73 13 2.0 4.0 0.00 0.00 0.00 63 1012.4
20260503005222 74 13 2.0 5.0 0.00 0.00 0.00 63 1012.6
20260503005037 74 13 0.0 5.0 0.00 0.00 0.00 65 1012.4
20260503004730 74 13 0.0 5.0 0.00 0.00 0.00 63 1012.7
20260503004517 74 13 3.0 5.0 0.00 0.00 0.00 64 1012.3
20260503004216 74 13 0.0 6.0 0.00 0.00 0.00 66 1012.7
20260503004100 73 13 0.0 6.0 0.00 0.00 0.00 66 1012.4
20260503003718 74 11 2.0 6.0 0.00 0.00 0.00 64 1012.7
20260503003541 73 12 3.0 6.0 0.00 0.00 0.00 63 1012.5
20260503003242 74 12 0.0 4.0 0.00 0.00 0.00 63 1012.7
20260503003002 73 13 0.0 4.0 0.00 0.00 0.00 65 1012.4
20260503002722 73 15 0.0 5.0 0.00 0.00 0.00 65 1012.7
20260503002545 73 15 1.0 5.0 0.00 0.00 0.00 67 1012.4
20260503002230 73 13 2.0 5.0 0.00 0.00 0.00 65 1012.6
20260503002007 73 13 3.0 5.0 0.00 0.00 0.00 65 1012.4
20260503001711 73 13 0.0 6.0 0.00 0.00 0.00 67 1012.7
20260503001550 72 13 0.0 6.0 0.00 0.00 0.00 66 1012.4
20260503001213 73 13 2.0 6.0 0.00 0.00 0.00 66 1012.8
20260503001031 72 13 2.0 6.0 0.00 0.00 0.00 66 1012.4
20260503000741 72 13 3.0 7.0 0.00 0.00 0.00 67 1012.8
20260503000553 72 13 3.0 6.0 0.00 0.00 0.00 65 1012.6
20260503000222 72 220 2.0 6.0 0.00 0.00 0.00 67 1012.9
20260503000035 72 13 2.0 6.0 0.00 0.00 0.00 67 1012.6
20260502235731 72 13 4.0 8.0 0.00 0.00 0.00 67 1012.9
20260502235517 72 13 4.0 8.0 0.00 0.00 0.00 68 1012.7
20260502235212 72 12 4.0 8.0 0.00 0.00 0.00 67 1013.0
20260502235100 71 13 3.0 8.0 0.00 0.00 0.00 67 1012.9
20260502234713 72 14 4.0 8.0 0.00 0.00 0.00 67 1013.1
20260502234541 71 247 3.0 8.0 0.00 0.00 0.00 68 1012.9
20260502234215 72 13 4.0 9.0 0.00 0.00 0.00 66 1013.1
20260502234023 71 12 3.0 9.0 0.00 0.00 0.00 67 1012.9
20260502233723 72 13 2.0 9.0 0.00 0.00 0.00 68 1013.2
20260502233504 71 13 5.0 9.0 0.00 0.00 0.00 68 1013.0
20260502233224 72 13 4.0 8.0 0.00 0.00 0.00 67 1013.2
20260502233047 71 13 3.0 6.0 0.00 0.00 0.00 69 1012.9
20260502232710 72 13 1.0 8.0 0.00 0.00 0.00 69 1013.3
20260502232529 71 13 1.0 8.0 0.00 0.00 0.00 67 1013.0
20260502232211 71 14 2.0 8.0 0.00 0.00 0.00 70 1013.3
20260502232010 71 269 3.0 8.0 0.00 0.00 0.00 69 1013.0
20260502231720 71 307 2.0 8.0 0.00 0.00 0.00 69 1013.3
20260502231556 70 15 3.0 8.0 0.00 0.00 0.00 68 1013.1
20260502231221 70 13 3.0 8.0 0.00 0.00 0.00 71 1013.4
20260502231035 70 230 4.0 8.0 0.00 0.00 0.00 70 1013.2
20260502230729 70 10 1.0 7.0 0.00 0.00 0.00 68 1013.4
20260502230516 69 159 3.0 7.0 0.00 0.00 0.00 69 1013.3
20260502230246 70 228 4.0 9.0 0.00 0.00 0.00 69 1013.5
20260502230038 69 271 2.0 9.0 0.00 0.00 0.00 70 1013.4
20260502225710 70 14 4.0 9.0 0.00 0.00 0.00 72 1013.6
20260502225520 69 13 5.0 9.0 0.00 0.00 0.00 71 1013.3
20260502225214 70 224 6.0 10.0 0.00 0.00 0.00 69 1013.7
20260502225042 70 232 5.0 10.0 0.00 0.00 0.00 67 1013.4
20260502224742 71 281 1.0 6.0 0.00 0.00 0.00 68 1013.8
20260502224502 70 15 0.0 6.0 0.00 0.00 0.00 69 1013.5
20260502224223 70 286 2.0 6.0 0.00 0.00 0.00 70 1013.9
20260502224046 70 269 3.0 6.0 0.00 0.00 0.00 69 1013.6
20260502223724 70 13 0.0 6.0 0.00 0.00 0.00 74 1014.0
20260502223531 69 13 1.0 6.0 0.00 0.00 0.00 70 1013.7
20260502223233 69 277 3.0 8.0 0.00 0.00 0.00 73 1014.1
20260502223009 69 15 2.0 8.0 0.00 0.00 0.00 70 1013.9
20260502222714 69 355 4.0 8.0 0.00 0.00 0.00 70 1014.2
20260502222555 69 16 4.0 8.0 0.00 0.00 0.00 68 1013.9
20260502222216 69 279 3.0 8.0 0.00 0.00 0.00 73 1014.3
20260502222034 69 337 2.0 6.0 0.00 0.00 0.00 71 1014.0
20260502221744 69 265 2.0 5.0 0.00 0.00 0.00 70 1014.4
20260502221556 68 277 2.0 6.0 0.00 0.00 0.00 71 1014.2
20260502221224 68 331 2.0 8.0 0.00 0.00 0.00 74 1014.5
20260502221038 67 288 2.0 8.0 0.00 0.00 0.00 72 1014.3
20260502220733 68 317 4.0 9.0 0.00 0.00 0.00 75 1014.5
20260502220519 67 230 5.0 9.0 0.00 0.00 0.00 74 1014.3
20260502220214 67 210 3.0 9.0 0.00 0.00 0.00 73 1014.6
20260502220002 66 227 5.0 9.0 0.00 0.00 0.00 73 1014.4
20260502215716 67 246 6.0 10.0 0.00 0.00 0.00 73 1014.7
20260502215545 66 228 4.0 8.0 0.00 0.00 0.00 73 1014.4
20260502215244 67 213 4.0 8.0 0.00 0.00 0.00 72 1014.6